CW9561 Weather Reports


time (UTC)temp
C
wind
direction
speed
KPH
gust
KPH
rain 1hr
cm
rain 24hr
cm
rain mn
cm
humidity
%
barometer
mb
20260831172038 12 102 0.0 0.0 0.00 0.00 0.03 85 1030.3
20260831171033 11 102 0.0 0.0 0.00 0.00 0.03 88 1030.5
20260831170030 11 102 0.0 0.0 0.00 0.00 0.03 91 1029.9
20260831165027 11 337 0.0 0.0 0.00 0.00 0.03 93 1029.9
20260831164026 10 13 0.0 0.0 0.00 0.00 0.03 95 1029.9
20260831163024 10 13 0.0 0.0 0.00 0.00 0.03 96 1030.0
20260831162022 10 13 0.0 0.0 0.00 0.00 0.03 96 1030.1
20260831160024 9 13 0.0 0.0 0.00 0.00 0.03 96 1030.0
20260831154026 8 13 0.0 0.0 0.00 0.00 0.03 96 1030.1
20260831153021 8 326 0.0 0.0 0.00 0.00 0.03 96 1030.0
20260831152037 8 326 0.0 0.0 0.00 0.00 0.03 97 1030.0
20260831151018 8 326 0.0 0.0 0.00 0.00 0.03 97 1030.0
20260831150019 8 326 0.0 0.0 0.00 0.00 0.03 97 1030.0
20260831145021 8 326 0.0 0.0 0.00 0.00 0.03 97 1030.0
20260831143038 7 326 0.0 0.0 0.00 0.00 0.03 97 1029.7
20260831142038 7 326 0.0 0.0 0.00 0.00 0.03 97 1029.8
20260831141036 7 326 0.0 0.0 0.00 0.00 0.03 97 1029.7
20260831134035 7 326 0.0 0.0 0.00 0.00 0.03 97 1029.2
20260831133035 7 326 0.0 0.0 0.00 0.00 0.03 97 1029.2
20260831132034 7 326 0.0 0.0 0.00 0.00 0.03 96 1029.0
20260831131032 6 326 0.0 0.0 0.00 0.00 0.03 96 1028.8
20260831125034 6 326 0.0 0.0 0.00 0.00 0.03 96 1028.5
20260831124034 6 326 0.0 0.0 0.00 0.00 0.03 96 1028.6
20260831123032 6 326 0.0 0.0 0.00 0.00 0.03 96 1028.3
20260831122031 6 326 0.0 0.0 0.00 0.00 0.03 96 1028.2
20260831121028 5 326 0.0 0.0 0.00 0.00 0.03 96 1028.1
20260831120028 5 326 0.0 0.0 0.00 0.00 0.03 96 1028.1
20260831115026 5 326 0.0 0.0 0.00 0.00 0.03 96 1027.9
20260831114025 5 326 0.0 0.0 0.00 0.00 0.03 96 1027.9
20260831113021 5 326 0.0 0.0 0.00 0.00 0.00 96 1027.9
20260831112022 5 326 0.0 0.0 0.00 0.00 0.00 96 1027.9
20260831110020 5 326 0.0 0.0 0.00 0.00 0.00 96 1027.6
20260831105023 5 326 0.0 0.0 0.00 0.00 0.00 96 1027.7
20260831104022 5 326 0.0 0.0 0.00 0.00 0.00 96 1027.8
20260831102021 6 326 0.0 0.0 0.00 0.00 0.00 96 1027.7
20260831101027 5 326 0.0 0.0 0.00 0.00 0.00 96 1027.6
20260831095027 5 326 0.0 0.0 0.00 0.00 0.00 96 1027.6
20260831094023 5 326 0.0 0.0 0.00 0.00 0.00 95 1027.4
20260831093040 5 326 0.0 0.0 0.00 0.00 0.00 95 1027.4
20260831091023 5 326 0.0 0.0 0.00 0.00 0.00 95 1028.2
20260831090019 5 326 0.0 0.0 0.00 0.00 0.00 95 1027.9
20260831085019 5 326 0.0 0.0 0.00 0.00 0.00 95 1027.9
20260831084038 5 326 0.0 0.0 0.00 0.00 0.00 95 1027.9
20260831083039 5 326 0.0 0.0 0.00 0.00 0.00 95 1028.0
20260831082035 5 326 0.0 0.0 0.00 0.00 0.00 95 1028.0
20260831081032 5 326 0.0 0.0 0.00 0.00 0.00 95 1028.0
20260831080034 5 326 0.0 0.0 0.00 0.00 0.00 95 1027.9
20260831075029 6 326 0.0 0.0 0.00 0.00 0.00 95 1028.0
20260831074031 6 326 0.0 0.0 0.00 0.00 0.00 95 1028.1
20260831073027 6 326 0.0 0.0 0.00 0.00 0.00 95 1028.2
20260831072025 6 326 0.0 0.0 0.00 0.00 0.00 94 1028.2
20260831071021 6 326 0.0 0.0 0.00 0.00 0.00 94 1028.3
20260831070027 6 326 0.0 0.0 0.00 0.00 0.00 94 1028.4
20260831065027 6 326 0.0 0.0 0.00 0.00 0.00 94 1028.5
20260831064028 6 326 0.0 0.0 0.00 0.00 0.00 94 1028.5
20260831063027 6 326 0.0 0.0 0.00 0.00 0.00 93 1028.6
20260831062025 7 326 0.0 0.0 0.00 0.00 0.00 93 1028.4
20260831061033 7 326 0.0 0.0 0.00 0.00 0.00 92 1028.6
20260831060028 7 326 0.0 0.0 0.00 0.00 0.00 92 1028.6
20260831054024 7 326 0.0 0.0 0.00 0.00 1.75 93 1028.5
20260831053029 7 326 0.0 0.0 0.00 0.00 1.75 93 1028.5
20260831052026 7 326 0.0 0.0 0.00 0.00 1.75 93 1028.5
20260831051023 7 326 0.0 0.0 0.00 0.00 1.75 93 1028.5
20260831050022 7 326 0.0 0.0 0.00 0.00 1.75 92 1028.4
20260831045018 7 326 0.0 0.0 0.00 0.00 1.75 92 1028.7
20260831043024 8 326 0.0 0.0 0.00 0.00 1.75 91 1029.3
20260831042024 8 327 1.6 0.0 0.00 0.00 1.75 91 1029.1
20260831041020 8 288 0.0 0.0 0.00 0.00 1.75 91 1028.4
20260831040023 8 228 0.0 0.0 0.00 0.00 1.75 91 1028.4
20260831034021 8 206 0.0 0.0 0.00 0.00 1.75 92 1029.2
20260831033017 8 286 0.0 0.0 0.00 0.00 1.68 91 1030.0
20260831031032 9 242 1.6 0.0 0.00 0.00 1.42 89 1030.1
20260831030037 10 273 3.2 0.0 0.00 0.00 1.35 88 1029.7
20260831025033 11 257 0.0 0.0 0.00 0.00 1.22 89 1029.5
20260831024034 11 259 0.0 0.0 0.00 0.00 1.17 87 1028.7
20260831023021 11 228 0.0 0.0 0.00 0.00 1.17 85 1028.2
20260831022022 11 283 0.0 0.0 0.00 0.00 1.17 85 1027.9
20260831015022 11 283 0.0 0.0 0.00 0.00 1.17 84 1027.3
20260831014040 12 283 0.0 0.0 0.00 0.00 1.17 84 1027.0
20260831013036 12 283 0.0 0.0 0.00 0.00 1.17 82 1026.9
20260831012037 12 283 0.0 0.0 0.00 0.00 1.17 82 1026.8
20260831011034 12 283 0.0 0.0 0.00 0.00 1.17 82 1027.3
20260831005032 12 306 0.0 0.0 0.00 0.00 1.17 80 1027.2
20260831004037 13 169 0.0 0.0 0.00 0.00 1.17 79 1027.2
20260831003025 13 169 0.0 0.0 0.00 0.00 1.17 79 1027.2
20260831002026 13 265 0.0 0.0 0.00 0.00 1.17 78 1027.2
20260831001034 13 259 0.0 0.0 0.00 0.00 1.17 77 1027.1
20260831000032 14 250 0.0 0.0 0.00 0.00 1.17 77 1027.2
20260830235032 15 310 0.0 0.0 0.00 0.00 1.17 75 1027.2
20260830234033 15 244 0.0 0.0 0.00 0.00 1.17 74 1027.2
20260830232032 14 9 0.0 0.0 0.00 0.00 1.17 77 1027.2
20260830231028 14 9 0.0 0.0 0.00 0.00 1.17 76 1027.2
20260830230035 13 5 0.0 0.0 0.00 0.00 1.17 78 1027.0
20260830225036 13 344 3.2 0.0 0.00 0.00 1.17 80 1027.0
20260830224032 13 87 3.2 0.0 0.00 0.00 1.17 79 1026.9
20260830223026 14 360 6.4 0.0 0.00 0.00 1.17 81 1027.6
20260830222021 15 249 1.6 0.0 0.00 0.00 1.17 83 1027.5
20260830220039 12 121 1.6 0.0 0.00 0.00 1.17 88 1028.0
20260830215016 12 53 1.6 0.0 0.00 0.00 1.17 86 1028.0
20260830214037 13 38 3.2 0.0 0.00 0.00 1.17 85 1028.2
20260830213035 13 248 0.0 0.0 0.00 0.00 1.14 88 1028.5
20260830212019 12 215 0.0 0.0 0.00 0.00 1.14 87 1028.5
20260830211021 12 169 0.0 0.0 0.00 0.00 1.14 89 1028.5
20260830210037 11 265 0.0 0.0 0.00 0.00 1.14 91 1028.2
20260830205033 11 265 0.0 0.0 0.00 0.00 1.14 91 1028.5
20260830204028 11 269 0.0 0.0 0.00 0.00 1.14 92 1028.5
20260830203027 11 263 0.0 0.0 0.00 0.00 1.14 93 1029.1
20260830202025 10 263 0.0 0.0 0.00 0.00 1.14 93 1029.1
20260830201040 10 263 0.0 0.0 0.00 0.00 1.12 93 1029.2
20260830195033 9 254 0.0 0.0 0.00 0.00 1.02 91 1029.8
20260830194034 10 242 1.6 0.0 0.00 0.00 0.94 90 1029.2
20260830193029 10 302 1.6 0.0 0.00 0.00 0.89 90 1028.7
20260830192027 10 196 0.0 0.0 0.00 0.00 0.86 92 1028.5
20260830191022 10 253 1.6 0.0 0.00 0.00 0.86 91 1028.0
20260830190026 10 202 0.0 0.0 0.00 0.00 0.84 90 1027.7
20260830185024 10 290 0.0 0.0 0.00 0.00 0.79 90 1028.5
20260830184039 11 238 1.6 0.0 0.00 0.00 0.69 88 1028.6
20260830183035 11 227 1.6 0.0 0.00 0.00 0.64 87 1028.4
20260830182030 12 84 0.0 0.0 0.00 0.00 0.61 89 1028.1
20260830181031 11 85 1.6 0.0 0.00 0.00 0.61 85 1027.4
20260830180027 11 84 1.6 0.0 0.00 0.00 0.61 88 1027.3
20260830175021 11 96 1.6 0.0 0.00 0.00 0.61 92 1027.4
20260830174037 10 133 0.0 0.0 0.00 0.00 0.61 94 1027.4
20260830173036 10 244 0.0 0.0 0.00 0.00 0.61 93 1027.2